Regional Weather Roundup
Issued by NWS

Home | Current Version | Previous Version | Text Only | Print | Product List | Glossary Off
Versions: 1 2 3 4 5 6 7 8 9 10 11 12 13 14 15 16 17 18 19 20 21 22 23 24 25 26 27 28 29 30 31 32 33 34 35 36 37 38 39 40 41 42 43 44 45 46 47 48 49 50

000
ASUS44 KMEG 251910
RWRTN
TENNESSEE HOURLY STATE WEATHER ROUNDUP
NATIONAL WEATHER SERVICE MEMPHIS TN
200 PM CDT SUN JUN 25 2017

TNZ002-004-019-021-049-052-054-088>092-252000-
WEST TENNESSEE

CITY           SKY/WX    TMP DP  RH WIND       PRES   REMARKS
MEMPHIS INTL   MOSUNNY   85  53  33 VRB5      30.23F
NWS MEMPHIS      N/A     83 N/A N/A MISG        N/A
JACKSON        SUNNY     83  50  31 N7        30.24F
SOMERVILLE     SUNNY     82  54  36 NW7       30.23F
COVINGTON      SUNNY     82  48  30 VRB6      30.24F
UNION CITY     SUNNY     82  50  32 N6        30.22F
BOLIVAR        SUNNY     82  50  32 N9        30.23F
PARIS          SUNNY     81  50  34 N8        30.22F
HUNTINGDON     SUNNY     82  50  32 VRB7      30.22F
LEXINGTON      SUNNY     81  50  34 VRB6G14   30.23F
SELMER         SUNNY     81  48  32 N6G14     30.23F
SAVANNAH       SUNNY     81  52  36 N7G13     30.22F
$$

TNZ008-025-027-028-033-062-065-066-252000-
NORTH MIDDLE TENNESSEE

CITY           SKY/WX    TMP DP  RH WIND       PRES   REMARKS
NASHVILLE      MOSUNNY   84  47  27 N10       30.22F
PORTLAND       SUNNY     79  46  31 N8G15     30.21F
CLARKSVILLE    SUNNY     81  47  30 NW10      30.22F
SMYRNA         SUNNY     81  50  33 N10       30.22F
COOKEVILLE     SUNNY     77  50  38 N8        30.21F
GALLATIN       SUNNY     81  46  30 NW6G17    30.24S
CROSSVILLE     SUNNY     75  48  38 N13       30.24F
$$

TNZ061-075-076-078-094-096-097-252000-
SOUTH MIDDLE TENNESSEE

CITY           SKY/WX    TMP DP  RH WIND       PRES   REMARKS
FAYETTEVILLE   SUNNY     79  55  44 VRB7G15   30.21F
TULLAHOMA      SUNNY     77  48  36 N14       30.23F
WINCHESTER     SUNNY     79  55  44 N13         N/A
MCMINNVILLE    SUNNY     79  54  41 N10       30.22S
COLUMBIA       SUNNY     81  46  30 NW5G13    30.21S
SHELBYVILLE    SUNNY     79  50  36 N14       30.22S
$$

TNZ017-018-042-046-047-252000-
NORTHEAST TENNESSEE

CITY           SKY/WX    TMP DP  RH WIND       PRES   REMARKS
TRI CITIES     PTSUNNY   75  55  49 SW9       30.18F
ELIZABETHTON   PTSUNNY   73  59  60 NW6G13    30.17F
$$

TNZ012-013-036-069-073-074-252000-
CENTRAL EAST TENNESSEE

CITY           SKY/WX    TMP DP  RH WIND       PRES   REMARKS
KNOXVILLE      PTSUNNY   76  55  48 VRB3      30.18F
OAK RIDGE      SUNNY     81  49  32 VRB5      30.19F
DOWNTOWN KNOXV SUNNY     79  54  41 VRB5      30.18F
GATLINBURG     SUNNY     75  55  50 VRB5      30.18F
MORRISTOWN     SUNNY     75  50  41 NW8G14    30.18F
JACKSBORO      SUNNY     79  48  34 VRB7G13   30.22F
$$

TNZ083-085-099-252000-
SOUTHEAST TENNESSEE

CITY           SKY/WX    TMP DP  RH WIND       PRES   REMARKS
CHATTANOOGA    CLOUDY    77  55  46 VRB5      30.19F
$$

SKY/WX REPORTED AS FAIR MEANS FEW OR NO CLOUDS BELOW
12 THOUSAND FEET.




USA.gov is the U.S. government's official web portal to all federal, state and local government web resources and services.